WetterOnline ( https://www.wetteronline.de )

Wetter aktuell Dahlewitz

Aktuelles Wetter: Berlin-Dahlem (70m)

6-stündlich | Neueste Meldungen
Ortszeit Temperatur Wetter
Mo, 23.09. 8:00 8.1° C leicht bewölkt
Mo, 23.09. 2:00 10.0° C leicht bewölkt
So, 22.09. 20:00 16.0° C fast wolkenlos
So, 22.09. 14:00 24.0° C wolkenlos
So, 22.09. 8:00 7.0° C wolkenlos
So, 22.09. 2:00 7.9° C wolkenlos
Sa, 21.09. 20:00 13.7° C leicht bewölkt
Sa, 21.09. 14:00 19.5° C leicht bewölkt
Ortszeit Temperatur Wetter
Mo, 23.09. 13:00 21.0° C leicht bewölkt
Mo, 23.09. 12:00 19.1° C leicht bewölkt
Mo, 23.09. 11:00 17.5° C leicht bewölkt
Mo, 23.09. 10:00 13.9° C leicht bewölkt
Mo, 23.09. 9:00 10.9° C leicht bewölkt
Mo, 23.09. 8:00 8.1° C leicht bewölkt
Ortszeit Relative Feuchte Sichtweite
Mo, 23.09. 8:00 100% 50 km
Mo, 23.09. 2:00 98% 40 km
So, 22.09. 20:00 61% 50 km
So, 22.09. 14:00 34% 60 km
So, 22.09. 8:00 100% 40 km
So, 22.09. 2:00 100% 50 km
Sa, 21.09. 20:00 74% 50 km
Sa, 21.09. 14:00 46% 50 km
Ortszeit Relative Feuchte Sichtweite
Mo, 23.09. 13:00 44% 50 km
Mo, 23.09. 12:00 48% 50 km
Mo, 23.09. 11:00 53% 50 km
Mo, 23.09. 10:00 69% 50 km
Mo, 23.09. 9:00 88% 50 km
Mo, 23.09. 8:00 100% 50 km
Ortszeit Niederschlagsmenge Niederschlagsart
Mo, 23.09. 8:00 0.0 l/m2 in 12 Std. -
Mo, 23.09. 2:00 0.0 l/m2 in 6 Std. -
So, 22.09. 20:00 0.0 l/m2 in 12 Std. -
So, 22.09. 14:00 0.0 l/m2 in 6 Std. -
So, 22.09. 8:00 0.0 l/m2 in 12 Std. -
So, 22.09. 2:00 0.0 l/m2 in 6 Std. -
Sa, 21.09. 20:00 0.0 l/m2 in 12 Std. -
Sa, 21.09. 14:00 0.0 l/m2 in 6 Std. -
Ortszeit Niederschlagsmenge Niederschlagsart
Mo, 23.09. 13:00 keine Meldung -
Mo, 23.09. 12:00 keine Meldung -
Mo, 23.09. 11:00 keine Meldung -
Mo, 23.09. 10:00 keine Meldung -
Mo, 23.09. 9:00 keine Meldung -
Mo, 23.09. 8:00 keine Meldung -
Ortszeit Stärke Spitze Richtung
km/h Bft. km/h Grad Sektor
Mo, 23.09. 8:00 11 2 - 120° SO
Mo, 23.09. 2:00 11 2 - 110° O
So, 22.09. 20:00 11 2 - 120° SO
So, 22.09. 14:00 14 3 - 140° SO
So, 22.09. 8:00 11 2 - 140° SO
So, 22.09. 2:00 11 2 - 150° SO
Sa, 21.09. 20:00 11 2 - 190° S
Sa, 21.09. 14:00 11 2 - 260° W
Ortszeit Stärke Spitze Richtung
km/h Bft. km/h Grad Sektor
Mo, 23.09. 13:00 11 2 - 130° SO
Mo, 23.09. 12:00 14 3 - 100° O
Mo, 23.09. 11:00 11 2 - 110° O
Mo, 23.09. 10:00 11 2 - 130° SO
Mo, 23.09. 9:00 7 2 - 140° SO
Mo, 23.09. 8:00 11 2 - 120° SO
Ortszeit Untergrenze Bedeckung Gattung
total tief tief mittel hoch
Mo, 23.09. 8:00 4500 m 3/8 1/8 - Ac Ci
Mo, 23.09. 2:00 9000 m 2/8 0/8 - - Ci
So, 22.09. 20:00 7800 m 1/8 0/8 - - Ci
So, 22.09. 14:00 - 0/8 0/8 - - -
So, 22.09. 8:00 - 0/8 0/8 - - -
So, 22.09. 2:00 - 0/8 0/8 - - -
Sa, 21.09. 20:00 10500 m 2/8 0/8 - - Ci
Sa, 21.09. 14:00 9000 m 3/8 0/8 - - Ci
Ortszeit Bedeckungsgrad in Achtel und Wolkenuntergrenze
Mo, 23.09. 13:00 1(7200m) 6(10500m)
Mo, 23.09. 12:00 2(7200m) 6(10500m)
Mo, 23.09. 11:00 1(4500m) 6(10500m)
Mo, 23.09. 10:00 1(4500m) 4(9000m)
Mo, 23.09. 9:00 1(4500m) 3(9000m)
Mo, 23.09. 8:00 1(4500m) 3(9000m)
Ortszeit Luftdruck NN (hPa) Tendenz (hPa in 3 Std.)
Mo, 23.09. 8:00 1013 + 0,9
Mo, 23.09. 2:00 1013 + 0,2
So, 22.09. 20:00 1012 - 0,1
So, 22.09. 14:00 1013 - 1,9
So, 22.09. 8:00 1017 - 0,4
So, 22.09. 2:00 1018 - 1,1
Sa, 21.09. 20:00 1020 - 0,8
Sa, 21.09. 14:00 1022 - 1,3
Ortszeit Luftdruck NN (hPa) Tendenz (hPa in 3 Std.)
Mo, 23.09. 13:00 1013 - 0,4
Mo, 23.09. 12:00 1014 + 0,3
Mo, 23.09. 11:00 1014 + 0,7
Mo, 23.09. 10:00 1014 + 1,0
Mo, 23.09. 9:00 1014 + 1,1
Mo, 23.09. 8:00 1013 + 0,9
Ortszeit Schneehöhe (cm)
Mo, 23.09. 8:00 0
Mo, 23.09. 2:00 0
So, 22.09. 20:00 0
So, 22.09. 14:00 0
So, 22.09. 8:00 0
So, 22.09. 2:00 0
Sa, 21.09. 20:00 0
Sa, 21.09. 14:00 0
Ortszeit Schneehöhe (cm)
Mo, 23.09. 13:00 -
Mo, 23.09. 12:00 -
Mo, 23.09. 11:00 -
Mo, 23.09. 10:00 -
Mo, 23.09. 9:00 -
Mo, 23.09. 8:00 0
Link zu dieser Seite / Seite empfehlen

Das Wetter in ...